sat.trackr.live / text

‹ back to catalog

ASTRANIS UTILITYSAT

NORAD 62454 · 2024-252A

PAYLOAD ACTIVE UNKNOWN

§ Identity

Operator
Country
UK
Launch date
2024-12-29
Launch site
AFETR
Launch vehicle
Mass (kg)
RCS (m²)

External: N2YO · Heavens-Above · Gunter

§ Orbital elements

Epoch: 2026-09-21T18:59:34.257408Z

Period
1,435.65 min
Inclination
9.1460°
Eccentricity
0.7552960
Mean motion
1.00302930 rev/d
Perigee alt
3,937.6 km
Apogee alt
67,618.1 km
Semi-major
42,156.0 km
B*
0.0000e+0
RAAN
324.1815°
Arg perigee
263.6648°
Mean anomaly
14.2900°
Rev number
639

§ Raw data

ASTRANIS UTILITYSAT1 62454U 24252A   26264.79136872 -.00000181  00000+0  00000+0 0  99982 62454   9.1460 324.1815 7552960 263.6648  14.2900  1.00302930  6398

JSON: /api/v1/satellites/62454 · /tle

For live sub-satellite position, see the globe view (requires WebGL).

§ Visibility from observer

Set your observer location to see the next 7 days of passes ≥ 10°. The values pass through the URL so the page stays shareable.

No JS? Fill the form by hand. The geolocation button needs JavaScript.